Location: Quaker Farms
(41.4276°N, 73.1557°W)
Time: 21:02:13
(UTC+00:00)

S-56A Canister/Altair - Pass Details

Date: 23 June 2021
Orbit: 631 x 2501 km, 38.9° (Epoch: 30 July)

Event Time Altitude Azimuth Distance (km) Brightness Sun altitude
Rises 08:44:17 0° 244° (WSW) 3,112 - -6.2°
Exits shadow 08:46:07 - 241° (WSW) 2,370 9.4 -5.9°
Reaches altitude 10° 08:46:50 10° 239° (WSW) 2,084 9.1 -5.8°
Maximum altitude 08:51:13 47° 165° (SSE) 834 7.6 -5.2°
Drops below altitude 10° 08:55:34 10° 91° (E) 2,068 10.6 -4.5°
Sets 08:58:05 0° 85° (E) 3,085 11.8 -4.2°
